Regional Weather Roundup
Issued by NWS Charleston, WV

Home | Current Version | Previous Version | Graphics & Text | Print | Product List | Glossary On
Versions: 1 2 3 4 5 6 7 8 9 10 11 12 13 14 15 16 17 18 19 20 21 22 23 24 25 26 27 28 29 30 31 32 33 34 35 36 37 38 39 40 41 42 43 44 45 46 47 48 49 50
079
ASUS41 KRLX 201410
RWRRLX
West Virginia Regional Weather Roundup
National Weather Service Charleston WV
900 AM EST TUE FEB 20 2018

Note: "fair" indicates few or no clouds below 12,000 feet with no
significant weather and/or obstructions to visibility.

WVZ003-201500-
Northern Panhandle of West Virginia

CITY           SKY/WX    TMP DP  RH WIND       PRES   REMARKS
WHEELING         N/A     65  52  62 SW17G26   30.22R
$$

WVZ009-201500-
Northwest West Virginia

CITY           SKY/WX    TMP DP  RH WIND       PRES   REMARKS
PARKERSBURG      N/A     68  52  56 S9        30.26S
$$

WVZ006-201500-
Western West Virginia

CITY           SKY/WX    TMP DP  RH WIND       PRES   REMARKS
HUNTINGTON       N/A     67  52  58 S15       30.25R
$$

WVZ015-201500-
West Central West Virginia

CITY           SKY/WX    TMP DP  RH WIND       PRES   REMARKS
CHARLESTON       N/A     68  52  56 S12       30.28R
$$

WVZ022-031-201500-
North Central West Virginia

CITY           SKY/WX    TMP DP  RH WIND       PRES   REMARKS
CLARKSBURG       N/A     68  51  54 S8        30.28S
MORGANTOWN     CLOUDY    66  49  54 S5        30.28R
$$

WVZ025-035-042-045-201500-
Southern West Virginia

CITY           SKY/WX    TMP DP  RH WIND       PRES   REMARKS
BECKLEY          N/A     58  51  78 SE9       30.37R
LOGAN            N/A     66  52  59 VRB5G15   30.32S
BLUEFIELD        N/A     59  49  69 S8        30.40R
LEWISBURG        N/A     45  45  99 NE3       30.42R
$$

WVZ047-201500-
Northern Mountains of West Virginia

CITY           SKY/WX    TMP DP  RH WIND       PRES   REMARKS
ELKINS         PTSUNNY   63  49  60 S12       30.34R
$$

WVZ052-201500-
Eastern Panhandle of West Virginia

CITY           SKY/WX    TMP DP  RH WIND       PRES   REMARKS
MARTINSBURG      N/A     50  47  89 CALM      30.32S FOG
PETERSBURG       N/A     61  51  70 S9G16     30.32F
$$




USA.gov is the U.S. government's official web portal to all federal, state and local government web resources and services.